Regional Weather Roundup
Issued by NWS Kansas City/Pleasant Hill, MO

Home | Current Version | Previous Version | Graphics & Text | Print | Product List | Glossary Off
Versions: 1 2 3 4 5 6 7 8 9 10 11 12 13 14 15 16 17 18 19 20 21 22 23 24 25 26 27 28 29 30 31 32 33 34 35 36 37 38 39 40 41 42 43 44 45 46 47 48 49 50

840
ASUS43 KEAX 191910
RWREAX

WEATHER ROUNDUP FOR EASTERN KANSAS AND NORTHWEST MISSOURI
NATIONAL WEATHER SERVICE KANSAS CITY/PLEASANT HILL MO
200 PM CDT THU APR 19 2018

KSZ040-057-103>105-MOZ028-029-037-043-192000-
...KANSAS CITY METROPOLITAN AREA...

CITY           SKY/WX    TMP DP  RH WIND       PRES   REMARKS
K.C. INTL      MOSUNNY   55  31  39 NE10      30.45S
K.C. DOWNTOWN  SUNNY     55  31  39 NE10      30.45S
LEES SUMMIT    SUNNY     53  32  44 NE9G18    30.45S
OLATHE - IXD   SUNNY     54  31  41 N8        30.46F
OLATHE - OJC   SUNNY     52  30  43 NE10      30.45S
LAWRENCE       SUNNY     56  30  37 VRB7      30.46F

$$

MOZ001>008-011>017-020>025-030>033-038>040-044>046-053-054-192000-
...NORTHERN AND CENTRAL MISSOURI...

CITY           SKY/WX    TMP DP  RH WIND       PRES   REMARKS
ST. JOSEPH     SUNNY     57  31  37 MISG      30.45F
MOSBY          CLEAR     54  30  40 E9        30.45S
WARRENSBURG    SUNNY     52  30  43 N8        30.45S
WHITEMAN AFB   MOSUNNY   51  30  44 N5        30.40F
CLINTON        MOSUNNY   52  32  46 NE8       30.45S
SEDALIA        MOSUNNY   53  32  44 VRB5      30.45S
WARSAW         NOT AVBL
CHILLICOTHE      N/A     54  31  41 NE6       30.46F
KIRKSVILLE     MOSUNNY   53  31  42 NE8       30.45S

$$

MOZ041-047>049-056>058-063>065-088>090-097-192000-
...EASTERN AND SOUTHERN MISSOURI...

CITY           SKY/WX    TMP DP  RH WIND       PRES   REMARKS
ST. LOUIS INTL MOSUNNY   50  33  52 N13       30.42S
SPIRIT OF STL  PTSUNNY   51  33  50 N13       30.42S
COLUMBIA       MOSUNNY   52  30  43 N12G17    30.43S
JEFFERSON CITY MOSUNNY   52  29  41 N13       30.44S
ROLLA          MOSUNNY   49  30  48 N15G22    30.42R
OSAGE BEACH    MOSUNNY   51  30  44 N10       30.44R
SPRINGFIELD    SUNNY     53  31  42 NE12G23   30.40S
BRANSON        MOSUNNY   50  28  43 N10G22    30.40S
JOPLIN         SUNNY     52  32  46 E8        30.43F
WEST PLAINS    SUNNY     52  29  41 N10G17    30.39S

$$

IAZ060-094-KSZ022-034>040-054-083-096-NEZ052-066-093-192000-
...KANSAS...SOUTHEAST NEBRASKA AND IOWA...

CITY           SKY/WX    TMP DP  RH WIND       PRES   REMARKS
TOPEKA         SUNNY     56  31  38 MISG      30.46F
MANHATTAN      SUNNY     54  28  36 NE6       30.46F
EMPORIA        SUNNY     54  28  36 NE10G17   30.45F
CHANUTE        SUNNY     55  27  34 NE13      30.44F
WICHITA        MOSUNNY   57  28  33 E14G22    30.42F
OMAHA          MOSUNNY   54  29  38 VRB3      30.47S
LINCOLN        SUNNY     55  27  34 VRB6      30.47F
FALLS CITY     SUNNY     56  28  34 MISG      30.45F
LAMONI         SUNNY     52  30  43 VRB6G16   30.46R
DES MOINES     MOSUNNY   51  27  39 VRB7      30.48F

$$





USA.gov is the U.S. government's official web portal to all federal, state and local government web resources and services.